| time (UTC) | temp C | wind direction | speed KPH | gust KPH | rain 1hr cm | rain 24hr cm | rain mn cm | humidity % | barometer mb |
| 20260503072005 | 2 | 210 | 0.0 | 0.0 | 0.00 | 1.09 | 0.30 | 89 | 1008.6 |
| 20260503071005 | 2 | 213 | 0.0 | 0.0 | 0.00 | 1.09 | 0.30 | 90 | 1008.5 |
| 20260503055005 | 1 | 198 | 0.0 | 0.0 | 0.00 | 1.04 | 0.25 | 90 | 1008.6 |
| 20260503054005 | 1 | 196 | 0.0 | 0.0 | 0.00 | 1.04 | 0.25 | 91 | 1008.3 |
| 20260503053005 | 1 | 196 | 0.0 | 0.0 | 0.00 | 1.04 | 0.25 | 90 | 1008.4 |
| 20260503052005 | 1 | 196 | 0.0 | 0.0 | 0.03 | 1.04 | 0.25 | 90 | 1008.2 |
| 20260503050006 | 1 | 196 | 0.0 | 0.0 | 0.03 | 1.07 | 0.25 | 91 | 1008.3 |
| 20260503045006 | 1 | 196 | 0.0 | 0.0 | 0.05 | 1.09 | 0.25 | 91 | 1008.4 |
| 20260503044005 | 1 | 196 | 0.0 | 0.0 | 0.05 | 1.09 | 0.25 | 91 | 1008.4 |
| 20260503043006 | 1 | 196 | 0.0 | 0.0 | 0.05 | 1.17 | 0.25 | 92 | 1008.6 |
| 20260503040006 | 1 | 196 | 0.0 | 0.0 | 0.05 | 1.40 | 0.23 | 91 | 1008.7 |
| 20260503035005 | 1 | 196 | 0.0 | 0.0 | 0.03 | 1.47 | 0.23 | 91 | 1008.6 |
| 20260503033005 | 1 | 196 | 0.0 | 0.0 | 0.05 | 1.55 | 0.20 | 92 | 1008.5 |
| 20260503032005 | 1 | 196 | 0.0 | 0.0 | 0.10 | 1.60 | 0.20 | 91 | 1008.4 |
| 20260503031006 | 1 | 196 | 0.0 | 0.0 | 0.13 | 1.63 | 0.20 | 91 | 1008.3 |
| 20260503030004 | 1 | 196 | 0.0 | 0.0 | 0.13 | 1.65 | 0.20 | 90 | 1008.4 |
| 20260503025005 | 1 | 196 | 0.0 | 0.0 | 0.13 | 1.75 | 0.20 | 90 | 1008.5 |
| 20260503024005 | 1 | 196 | 0.0 | 0.0 | 0.13 | 1.78 | 0.20 | 91 | 1008.5 |
| 20260503023005 | 1 | 196 | 0.0 | 0.0 | 0.08 | 1.75 | 0.15 | 91 | 1008.5 |
| 20260503022005 | 1 | 196 | 0.0 | 0.0 | 0.05 | 1.73 | 0.10 | 91 | 1008.7 |
| 20260503015005 | 1 | 194 | 0.0 | 0.0 | 0.03 | 1.83 | 0.08 | 91 | 1008.4 |
| 20260503014006 | 1 | 208 | 0.0 | 0.0 | 0.03 | 1.88 | 0.08 | 92 | 1008.3 |
| 20260503013005 | 1 | 208 | 0.0 | 0.0 | 0.03 | 1.91 | 0.08 | 92 | 1008.4 |
| 20260503011004 | 1 | 283 | 0.0 | 0.0 | 0.05 | 1.93 | 0.05 | 90 | 1008.3 |
| 20260503005005 | 1 | 263 | 0.0 | 0.0 | 0.05 | 2.08 | 0.05 | 91 | 1008.0 |
| 20260503004005 | 1 | 185 | 0.0 | 0.0 | 0.05 | 2.18 | 0.05 | 91 | 1008.1 |
| 20260503003005 | 1 | 294 | 0.0 | 0.0 | 0.05 | 2.21 | 0.05 | 91 | 1008.1 |
| 20260503002005 | 1 | 309 | 0.0 | 0.0 | 0.03 | 2.21 | 0.05 | 91 | 1008.0 |
| 20260502235005 | 1 | 259 | 0.0 | 0.0 | 0.00 | 2.21 | 0.03 | 91 | 1008.1 |
| 20260502233006 | 1 | 269 | 0.0 | 0.0 | 0.00 | 2.24 | 0.03 | 91 | 1007.8 |
| 20260502232005 | 1 | 281 | 0.0 | 0.0 | 0.03 | 2.24 | 0.03 | 92 | 1008.0 |
| 20260502231005 | 1 | 261 | 0.0 | 0.0 | 0.03 | 2.24 | 0.03 | 92 | 1007.9 |
| 20260502230005 | 1 | 256 | 0.0 | 0.0 | 0.03 | 2.24 | 0.03 | 92 | 1007.8 |
| 20260502225005 | 1 | 254 | 0.0 | 0.0 | 0.03 | 2.24 | 0.03 | 92 | 1007.8 |
| 20260502224005 | 1 | 272 | 0.0 | 0.0 | 0.03 | 2.24 | 0.03 | 92 | 1007.8 |
| 20260502223005 | 1 | 251 | 0.0 | 0.0 | 0.03 | 2.24 | 0.03 | 92 | 1007.7 |
| 20260502222004 | 1 | 250 | 0.0 | 0.0 | 0.00 | 2.21 | 0.00 | 92 | 1007.6 |
| 20260502221004 | 1 | 263 | 0.0 | 0.0 | 0.00 | 2.21 | 0.00 | 92 | 1007.5 |
| 20260502220005 | 1 | 218 | 0.0 | 0.0 | 0.00 | 2.21 | 0.00 | 92 | 1007.1 |
| 20260502215005 | 1 | 290 | 0.0 | 0.0 | 0.00 | 2.21 | 2.21 | 92 | 1007.0 |
| 20260502214005 | 1 | 250 | 0.0 | 0.0 | 0.03 | 2.21 | 2.21 | 93 | 1006.9 |
| 20260502213005 | 1 | 275 | 0.0 | 0.0 | 0.03 | 2.21 | 2.21 | 93 | 1007.1 |
| 20260502212005 | 1 | 258 | 0.0 | 0.0 | 0.03 | 2.21 | 2.21 | 93 | 1007.0 |
| 20260502211005 | 1 | 169 | 0.0 | 0.0 | 0.03 | 2.21 | 2.21 | 92 | 1007.1 |
| 20260502210004 | 2 | 196 | 0.0 | 0.0 | 0.03 | 2.21 | 2.21 | 92 | 1006.8 |
| 20260502205005 | 2 | 236 | 0.0 | 0.0 | 0.03 | 2.21 | 2.21 | 92 | 1006.8 |
| 20260502204005 | 2 | 298 | 0.0 | 0.0 | 0.00 | 2.21 | 2.21 | 92 | 1006.8 |
| 20260502202005 | 2 | 284 | 0.0 | 0.0 | 0.03 | 2.21 | 2.21 | 91 | 1006.9 |
| 20260502201005 | 2 | 271 | 0.0 | 0.0 | 0.03 | 2.21 | 2.21 | 91 | 1006.7 |
| 20260502200005 | 2 | 271 | 0.0 | 0.0 | 0.03 | 2.21 | 2.21 | 91 | 1006.7 |
| 20260502195005 | 2 | 271 | 0.0 | 0.0 | 0.03 | 2.21 | 2.21 | 92 | 1006.8 |
| 20260502194005 | 2 | 271 | 0.0 | 0.0 | 0.05 | 2.21 | 2.21 | 92 | 1006.9 |
| 20260502193004 | 2 | 271 | 0.0 | 0.0 | 0.03 | 2.18 | 2.18 | 92 | 1006.9 |
| 20260502192006 | 2 | 271 | 0.0 | 0.0 | 0.05 | 2.18 | 2.18 | 92 | 1006.8 |
| 20260502191005 | 2 | 271 | 0.0 | 0.0 | 0.05 | 2.18 | 2.18 | 92 | 1006.6 |
| 20260502190005 | 2 | 258 | 0.0 | 0.0 | 0.05 | 2.18 | 2.18 | 91 | 1006.6 |
| 20260502185004 | 2 | 272 | 0.0 | 0.0 | 0.10 | 2.18 | 2.18 | 90 | 1006.7 |
| 20260502184005 | 3 | 224 | 0.0 | 0.0 | 0.08 | 2.16 | 2.16 | 91 | 1006.8 |
| 20260502182005 | 2 | 224 | 0.0 | 0.0 | 0.05 | 2.13 | 2.13 | 92 | 1006.7 |
| 20260502164006 | 2 | 258 | 0.0 | 0.0 | 0.03 | 2.08 | 2.06 | 90 | 1006.3 |
| 20260502163007 | 3 | 258 | 0.0 | 0.0 | 0.03 | 2.08 | 2.06 | 91 | 1006.4 |
| 20260502162007 | 3 | 256 | 0.0 | 0.0 | 0.03 | 2.08 | 2.06 | 91 | 1006.6 |
| 20260502161007 | 3 | 221 | 0.0 | 0.0 | 0.03 | 2.08 | 2.06 | 91 | 1006.6 |
| 20260502152006 | 3 | 211 | 0.0 | 0.0 | 0.15 | 2.08 | 2.03 | 93 | 1006.6 |
| 20260502151006 | 2 | 232 | 0.0 | 0.0 | 0.20 | 2.08 | 2.03 | 93 | 1006.7 |
| 20260502123007 | 5 | 250 | 0.0 | 0.0 | 0.03 | 1.60 | 1.45 | 87 | 1006.2 |
| 20260502121007 | 4 | 254 | 0.0 | 0.0 | 0.03 | 1.63 | 1.45 | 88 | 1006.0 |
| 20260502115006 | 5 | 222 | 0.0 | 0.0 | 0.03 | 1.63 | 1.45 | 86 | 1006.2 |
| 20260502114006 | 5 | 228 | 0.0 | 0.0 | 0.03 | 1.63 | 1.45 | 84 | 1006.2 |
| 20260502113008 | 5 | 224 | 0.0 | 0.0 | 0.00 | 1.60 | 1.45 | 82 | 1005.9 |
| 20260502112008 | 5 | 285 | 0.0 | 0.0 | 0.00 | 1.60 | 1.45 | 83 | 1005.9 |
| 20260502111007 | 5 | 211 | 0.0 | 0.0 | 0.00 | 1.60 | 1.45 | 80 | 1005.9 |
| 20260502110006 | 6 | 217 | 0.0 | 0.0 | 0.00 | 1.63 | 1.45 | 74 | 1005.8 |
| 20260502105006 | 6 | 270 | 0.0 | 0.0 | 0.00 | 1.65 | 1.45 | 74 | 1005.7 |
| 20260502104007 | 6 | 222 | 0.0 | 0.0 | 0.00 | 1.70 | 1.45 | 73 | 1005.5 |
| 20260502103006 | 6 | 311 | 0.0 | 0.0 | 0.00 | 1.75 | 1.45 | 72 | 1005.4 |
| 20260502102006 | 6 | 229 | 0.0 | 0.0 | 0.00 | 1.75 | 1.45 | 74 | 1005.6 |
| 20260502101007 | 6 | 223 | 0.0 | 0.0 | 0.00 | 1.78 | 1.45 | 73 | 1005.5 |
| 20260502091007 | 6 | 200 | 0.0 | 0.0 | 0.00 | 1.98 | 1.45 | 79 | 1005.2 |